YO8SSH-13 Weather Reports


time (UTC)temp
C
wind
direction
speed
KPH
gust
KPH
rain 1hr
cm
rain 24hr
cm
rain mn
cm
humidity
%
barometer
mb
20260503195407 12 292 0.0 1.6 0.00 0.00 0.00 55 1015.0
20260503193905 12 292 1.6 3.2 0.00 0.00 0.00 54 1015.0
20260503192408 12 292 1.6 1.6 0.00 0.00 0.00 53 1015.0
20260503190907 13 248 0.0 3.2 0.00 0.00 0.00 52 1015.0
20260503185406 13 202 4.8 4.8 0.00 0.00 0.00 51 1015.0
20260503183905 14 202 3.2 3.2 0.00 0.00 0.00 48 1015.0
20260503182405 15 315 0.0 1.6 0.00 0.00 0.00 45 1016.0
20260503180913 15 225 0.0 0.0 0.00 0.00 0.00 43 1016.0
20260503175406 16 202 0.0 1.6 0.00 0.00 0.00 42 1016.0
20260503173907 16 248 0.0 1.6 0.00 0.00 0.00 41 1015.0
20260503172406 17 202 0.0 0.0 0.00 0.00 0.00 40 1015.0
20260503170907 17 180 0.0 1.6 0.00 0.00 0.00 39 1016.0
20260503150906 22 22 0.0 3.2 0.00 0.00 0.00 33 1016.0
20260503130919 21 90 1.6 3.2 0.00 0.00 0.00 34 1017.0
20260503080905 16 180 1.6 3.2 0.00 0.00 0.00 39 1020.0
20260503072406 15 315 0.0 6.4 0.00 0.00 0.00 42 1020.0
20260503070905 15 112 3.2 6.4 0.00 0.00 0.00 46 1020.0
20260503053905 8 90 1.6 1.6 0.00 0.00 0.00 65 1020.0
20260503052406 8 90 0.0 0.0 0.00 0.00 0.00 66 1020.0
20260503050927 6 180 0.0 3.2 0.00 0.00 0.00 71 1020.0
20260503045405 4 180 0.0 0.0 0.00 0.00 0.00 73 1020.0
20260503043906 3 180 0.0 0.0 0.00 0.00 0.00 72 1020.0
20260503042406 3 292 0.0 0.0 0.00 0.00 0.00 73 1019.0
20260503040907 2 292 0.0 0.0 0.00 0.00 0.00 73 1019.0
20260503035405 2 292 0.0 1.6 0.00 0.00 0.00 72 1019.0
20260503033905 2 292 0.0 0.0 0.00 0.00 0.00 72 1019.0
20260503032405 2 292 0.0 0.0 0.00 0.00 0.00 71 1019.0
20260503030905 2 292 0.0 0.0 0.00 0.00 0.00 71 1019.0
20260503025404 2 292 0.0 0.0 0.00 0.00 0.00 70 1019.0
20260503023907 2 292 0.0 0.0 0.00 0.00 0.00 70 1019.0
20260503022405 2 292 0.0 0.0 0.00 0.00 0.00 70 1019.0
20260503020905 3 292 0.0 0.0 0.00 0.00 0.00 70 1019.0
20260503015406 3 292 0.0 0.0 0.00 0.00 0.00 70 1019.0
20260503013905 3 292 0.0 0.0 0.00 0.00 0.00 70 1019.0
20260503012406 3 292 0.0 0.0 0.00 0.00 0.00 69 1019.0
20260503010905 3 292 0.0 0.0 0.00 0.00 0.00 69 1019.0
20260503005406 3 292 0.0 0.0 0.00 0.00 0.00 69 1019.0
20260503003905 3 292 0.0 0.0 0.00 0.00 0.00 68 1019.0
20260503002405 3 292 0.0 0.0 0.00 0.00 0.00 67 1019.0
20260503000905 3 292 0.0 0.0 0.00 0.00 0.00 67 1019.0
20260502235405 4 315 0.0 0.0 0.00 0.00 0.00 67 1019.0
20260502233906 4 315 0.0 0.0 0.00 0.00 0.00 66 1020.0
20260502232406 5 202 0.0 0.0 0.00 0.00 0.00 66 1020.0
20260502230906 5 202 0.0 0.0 0.00 0.00 0.00 66 1020.0
20260502225423 5 202 0.0 0.0 0.00 0.00 0.00 66 1020.0
20260502223908 5 0 0.0 0.0 0.00 0.00 0.00 65 1020.0
20260502222410 5 270 0.0 0.0 0.00 0.00 0.00 64 1020.0
20260502220913 5 292 0.0 0.0 0.00 0.00 0.00 64 1020.0
20260502215414 6 292 0.0 0.0 0.00 0.00 0.00 63 1020.0
20260502213917 6 315 0.0 0.0 0.00 0.00 0.00 62 1020.0
20260502212418 6 292 0.0 0.0 0.00 0.00 0.00 62 1020.0
20260502210921 6 292 0.0 1.6 0.00 0.00 0.00 62 1020.0
20260502205423 6 202 0.0 3.2 0.00 0.00 0.00 60 1020.0
20260502203926 7 292 0.0 1.6 0.00 0.00 0.00 59 1020.0
20260502202428 7 315 0.0 1.6 0.00 0.00 0.00 56 1020.0
20260502200931 7 292 0.0 0.0 0.00 0.00 0.00 55 1020.0